QPF
0.12 0.13 0.15 0.16 0.17 0.16 0.15 0.14 0.14 0.15 0.12 0.09 0.08 0.07 0.05 0.04 0.04 0.03 0.02 0.02 0.02 0.02 0.01 0.01 0.01 0.01 0.01 0.01 0.02 0.02 0.02 0.02 0.02 0.03 0.03 0.04 0.05 0.05
0.09 0.11 0.11 0.13 0.14 0.14 0.14 0.15 0.16 0.17 0.13 0.11 0.11 0.11 0.08 0.06 0.04 0.03 0.02 0.02 0.01 0.01 0.01 0.01 0.01 0.01 0.01 0.02 0.01 0.01 0.02 0.02 0.02 0.02 0.02 0.02 0.03 0.03
0.07 0.08 0.08 0.10 0.11 0.11 0.11 0.13 0.15 0.15 0.14 0.11 0.11 0.13 0.11 0.06 0.04 0.03 0.02 0.01 0.01 0.01 0.00 0.01 0.00 0.00 0.01 0.01 0.01 0.00 0.01 0.01 0.01 0.01 0.01 0.02 0.03 0.02
0.05 0.06 0.07 0.08 0.09 0.09 0.10 0.11 0.11 0.12 0.15 0.15 0.14 0.15 0.13 0.08 0.05 0.03 0.02 0.01 0.01 0.00 0.00 0.00 0.00 0.00 0.00 0.01 0.01 0.01 0.01 0.01 0.01 0.00 0.00 0.01 0.02 0.02
0.04 0.05 0.04 0.05 0.08 0.08 0.08 0.09 0.10 0.11 0.13 0.14 0.16 0.16 0.15 0.12 0.08 0.05 0.03 0.02 0.01 0.00 0.00 0.00 0.00 0.00 0.00 0.00 0.01 0.00 0.01 0.01 0.01 0.00 0.00 0.00 0.00 0.01
0.04 0.04 0.03 0.03 0.03 0.06 0.07 0.08 0.09 0.10 0.13 0.14 0.15 0.18 0.17 0.17 0.14 0.09 0.05 0.02 0.01 0.01 0.00 0.00 0.00 0.00 0.00 0.00 0.00 0.00 0.00 0.00 0.01 0.00 0.00 0.00 0.00 0.01
0.04 0.04 0.03 0.02 0.02 0.02 0.03 0.06 0.07 0.08 0.10 0.13 0.14 0.18 0.17 0.17 0.14 0.10 0.09 0.05 0.02 0.02 0.01 0.00 0.00 0.00 0.00 0.00 0.00 0.00 0.00 0.00 0.00 0.00 0.00 0.01 0.01 0.01
0.04 0.04 0.03 0.03 0.02 0.01 0.01 0.02 0.04 0.06 0.07 0.09 0.11 0.13 0.17 0.14 0.13 0.13 0.11 0.08 0.04 0.02 0.01 0.01 0.00 0.00 0.00 0.00 0.00 0.00 0.00 0.00 0.00 0.00 0.00 0.00 0.01 0.01
0.04 0.03 0.03 0.02 0.02 0.01 0.01 0.01 0.01 0.03 0.04 0.06 0.08 0.10 0.13 0.15 0.13 0.11 0.10 0.08 0.06 0.04 0.02 0.02 0.01 0.00 0.00 0.00 0.00 0.00 0.00 0.00 0.00 0.00 0.01 0.01 0.01 0.01
0.04 0.04 0.03 0.02 0.01 0.01 0.01 0.01 0.01 0.01 0.01 0.03 0.05 0.08 0.11 0.12 0.12 0.11 0.10 0.09 0.07 0.06 0.05 0.03 0.02 0.01 0.00 0.00 0.01 0.01 0.00 0.00 0.00 0.01 0.01 0.01 0.02 0.02
0.04 0.05 0.04 0.02 0.01 0.02 0.01 0.01 0.01 0.01 0.01 0.01 0.02 0.04 0.08 0.12 0.14 0.12 0.10 0.08 0.07 0.05 0.05 0.04 0.02 0.02 0.01 0.00 0.01 0.01 0.01 0.01 0.01 0.01 0.01 0.01 0.01 0.01
0.04 0.05 0.04 0.03 0.01 0.01 0.01 0.01 0.01 0.01 0.01 0.01 0.01 0.02 0.04 0.09 0.12 0.13 0.10 0.07 0.05 0.05 0.04 0.04 0.03 0.02 0.01 0.01 0.00 0.00 0.01 0.01 0.01 0.01 0.01 0.01 0.01 0.01
0.02 0.04 0.04 0.02 0.01 0.01 0.01 0.01 0.01 0.01 0.02 0.02 0.02 0.02 0.02 0.05 0.09 0.11 0.12 0.08 0.06 0.04 0.04 0.04 0.03 0.03 0.02 0.01 0.01 0.00 0.00 0.01 0.01 0.01 0.01 0.01 0.01 0.01
0.02 0.03 0.03 0.02 0.01 0.01 0.01 0.01 0.02 0.02 0.02 0.02 0.02 0.02 0.02 0.03 0.06 0.09 0.09 0.10 0.09 0.06 0.05 0.05 0.04 0.03 0.02 0.01 0.01 0.01 0.00 0.00 0.01 0.01 0.01 0.01 0.01 0.01
0.01 0.03 0.02 0.02 0.02 0.01 0.01 0.01 0.01 0.01 0.01 0.01 0.02 0.02 0.02 0.03 0.05 0.08 0.08 0.08 0.09 0.09 0.06 0.05 0.04 0.03 0.02 0.01 0.00 0.00 0.01 0.01 0.01 0.01 0.00 0.00 0.00 0.00
0.01 0.02 0.01 0.02 0.02 0.02 0.01 0.01 0.01 0.01 0.01 0.01 0.01 0.02 0.03 0.04 0.06 0.08 0.09 0.07 0.07 0.06 0.05 0.05 0.04 0.04 0.03 0.01 0.01 0.00 0.00 0.00 0.00 0.01 0.01 0.01 0.00 0.00
0.01 0.01 0.01 0.02 0.02 0.02 0.02 0.02 0.01 0.01 0.01 0.01 0.02 0.02 0.03 0.04 0.06 0.09 0.09 0.08 0.06 0.06 0.05 0.04 0.04 0.04 0.04 0.03 0.02 0.01 0.01 0.01 0.01 0.01 0.01 0.01 0.01 0.01
0.01 0.02 0.02 0.01 0.02 0.02 0.02 0.02 0.01 0.01 0.01 0.01 0.02 0.03 0.04 0.04 0.06 0.09 0.10 0.09 0.06 0.06 0.05 0.04 0.04 0.04 0.04 0.04 0.03 0.02 0.02 0.01 0.01 0.01 0.01 0.01 0.01 0.01
0.01 0.01 0.01 0.01 0.02 0.03 0.02 0.02 0.02 0.01 0.01 0.01 0.02 0.03 0.05 0.05 0.06 0.08 0.10 0.10 0.07 0.06 0.05 0.05 0.04 0.03 0.03 0.03 0.02 0.02 0.02 0.02 0.02 0.02 0.01 0.01 0.01 0.01
0.01 0.02 0.02 0.02 0.02 0.03 0.02 0.02 0.02 0.02 0.03 0.03 0.03 0.04 0.06 0.06 0.06 0.07 0.09 0.11 0.09 0.05 0.05 0.05 0.05 0.03 0.03 0.03 0.03 0.03 0.02 0.02 0.03 0.03 0.02 0.02 0.02 0.01
0.02 0.02 0.02 0.02 0.02 0.02 0.02 0.02 0.03 0.03 0.04 0.04 0.04 0.05 0.06 0.09 0.08 0.07 0.09 0.12 0.11 0.08 0.05 0.05 0.05 0.05 0.04 0.03 0.05 0.05 0.04 0.04 0.04 0.05 0.04 0.03 0.02 0.01
0.02 0.02 0.02 0.02 0.02 0.02 0.03 0.03 0.03 0.03 0.05 0.05 0.04 0.04 0.06 0.10 0.10 0.07 0.08 0.10 0.09 0.08 0.08 0.07 0.07 0.07 0.06 0.04 0.04 0.04 0.05 0.06 0.06 0.07 0.06 0.04 0.03 0.02
0.04 0.05 0.05 0.04 0.03 0.03 0.03 0.04 0.05 0.05 0.06 0.05 0.05 0.04 0.07 0.12 0.11 0.08 0.09 0.09 0.09 0.09 0.09 0.09 0.08 0.07 0.07 0.05 0.04 0.04 0.05 0.06 0.06 0.06 0.05 0.04 0.02 0.02
MSLP
1007.11 1006.82 1006.64 1006.56 1006.58 1006.68 1006.84 1007.03 1007.25 1007.47 1007.69 1007.91 1008.13 1008.37 1008.61 1008.88 1009.18 1009.52 1009.90 1010.34 1010.84 1011.40 1012.00 1012.62 1013.25 1013.86 1014.41 1014.90 1015.31 1015.64 1015.91 1016.14 1016.34 1016.54 1016.75 1016.98 1017.23 1017.49
1007.10 1006.93 1006.84 1006.83 1006.90 1007.01 1007.16 1007.33 1007.51 1007.68 1007.86 1008.04 1008.22 1008.42 1008.64 1008.87 1009.14 1009.43 1009.77 1010.16 1010.61 1011.12 1011.68 1012.26 1012.87 1013.46 1014.01 1014.50 1014.91 1015.25 1015.53 1015.76 1015.95 1016.13 1016.33 1016.54 1016.77 1017.01
1007.03 1006.96 1006.96 1007.03 1007.14 1007.28 1007.43 1007.59 1007.75 1007.90 1008.06 1008.23 1008.41 1008.60 1008.80 1009.02 1009.26 1009.52 1009.81 1010.13 1010.51 1010.94 1011.42 1011.94 1012.48 1013.03 1013.56 1014.03 1014.45 1014.80 1015.09 1015.32 1015.52 1015.71 1015.89 1016.09 1016.31 1016.54
1006.85 1006.87 1006.96 1007.09 1007.25 1007.42 1007.59 1007.75 1007.91 1008.08 1008.25 1008.43 1008.63 1008.84 1009.06 1009.29 1009.51 1009.74 1009.97 1010.23 1010.51 1010.85 1011.23 1011.66 1012.12 1012.60 1013.08 1013.53 1013.93 1014.28 1014.58 1014.83 1015.04 1015.23 1015.42 1015.61 1015.82 1016.03
1006.55 1006.65 1006.81 1007.01 1007.22 1007.42 1007.61 1007.80 1007.98 1008.17 1008.37 1008.59 1008.83 1009.09 1009.34 1009.59 1009.81 1010.02 1010.21 1010.39 1010.60 1010.83 1011.10 1011.43 1011.80 1012.20 1012.61 1013.02 1013.41 1013.75 1014.05 1014.30 1014.52 1014.71 1014.90 1015.08 1015.27 1015.46
1006.16 1006.34 1006.57 1006.82 1007.06 1007.30 1007.52 1007.73 1007.94 1008.16 1008.40 1008.67 1008.96 1009.27 1009.56 1009.84 1010.08 1010.28 1010.44 1010.57 1010.70 1010.84 1011.02 1011.25 1011.53 1011.85 1012.20 1012.57 1012.92 1013.25 1013.53 1013.78 1014.00 1014.18 1014.36 1014.52 1014.69 1014.85
1005.77 1006.01 1006.28 1006.57 1006.85 1007.11 1007.34 1007.57 1007.79 1008.04 1008.31 1008.62 1008.96 1009.31 1009.65 1009.96 1010.23 1010.43 1010.58 1010.68 1010.76 1010.84 1010.96 1011.11 1011.32 1011.58 1011.88 1012.21 1012.53 1012.83 1013.10 1013.33 1013.53 1013.70 1013.84 1013.98 1014.11 1014.24
1005.41 1005.70 1006.01 1006.33 1006.62 1006.89 1007.13 1007.35 1007.58 1007.83 1008.11 1008.44 1008.80 1009.19 1009.56 1009.90 1010.19 1010.41 1010.57 1010.67 1010.73 1010.79 1010.87 1010.99 1011.17 1011.39 1011.66 1011.96 1012.26 1012.54 1012.78 1012.99 1013.16 1013.30 1013.40 1013.50 1013.59 1013.69
1005.16 1005.48 1005.81 1006.14 1006.43 1006.69 1006.91 1007.11 1007.32 1007.56 1007.83 1008.16 1008.52 1008.91 1009.30 1009.66 1009.97 1010.21 1010.39 1010.51 1010.59 1010.66 1010.75 1010.88 1011.06 1011.28 1011.54 1011.83 1012.11 1012.38 1012.60 1012.78 1012.92 1013.02 1013.08 1013.14 1013.20 1013.27
1005.03 1005.36 1005.70 1006.02 1006.30 1006.54 1006.73 1006.91 1007.08 1007.28 1007.53 1007.82 1008.16 1008.53 1008.91 1009.27 1009.59 1009.85 1010.06 1010.21 1010.34 1010.45 1010.58 1010.75 1010.96 1011.21 1011.49 1011.79 1012.07 1012.33 1012.54 1012.69 1012.80 1012.86 1012.90 1012.92 1012.96 1013.01
1005.01 1005.34 1005.68 1005.98 1006.24 1006.45 1006.62 1006.76 1006.90 1007.06 1007.26 1007.52 1007.81 1008.15 1008.50 1008.84 1009.15 1009.42 1009.65 1009.84 1010.01 1010.18 1010.37 1010.59 1010.85 1011.15 1011.47 1011.78 1012.08 1012.34 1012.54 1012.68 1012.76 1012.80 1012.82 1012.82 1012.85 1012.90
1005.10 1005.41 1005.73 1006.01 1006.25 1006.44 1006.58 1006.70 1006.81 1006.94 1007.10 1007.31 1007.56 1007.84 1008.14 1008.44 1008.73 1008.99 1009.23 1009.45 1009.66 1009.88 1010.12 1010.40 1010.72 1011.06 1011.41 1011.76 1012.07 1012.33 1012.53 1012.67 1012.74 1012.78 1012.79 1012.80 1012.83 1012.91
1005.26 1005.55 1005.83 1006.10 1006.32 1006.49 1006.63 1006.73 1006.83 1006.93 1007.06 1007.23 1007.43 1007.66 1007.91 1008.16 1008.41 1008.65 1008.87 1009.09 1009.32 1009.57 1009.85 1010.17 1010.53 1010.91 1011.29 1011.66 1011.98 1012.25 1012.46 1012.59 1012.67 1012.72 1012.74 1012.78 1012.84 1012.95
1005.47 1005.72 1005.97 1006.21 1006.42 1006.59 1006.72 1006.83 1006.93 1007.02 1007.14 1007.27 1007.43 1007.61 1007.81 1008.00 1008.20 1008.39 1008.59 1008.79 1009.01 1009.27 1009.57 1009.90 1010.28 1010.67 1011.07 1011.44 1011.77 1012.05 1012.26 1012.41 1012.51 1012.57 1012.63 1012.70 1012.80 1012.96
1005.70 1005.91 1006.13 1006.34 1006.53 1006.70 1006.83 1006.95 1007.05 1007.15 1007.26 1007.37 1007.50 1007.64 1007.78 1007.92 1008.06 1008.20 1008.35 1008.52 1008.72 1008.96 1009.25 1009.58 1009.95 1010.34 1010.73 1011.10 1011.43 1011.71 1011.93 1012.09 1012.21 1012.31 1012.40 1012.52 1012.68 1012.88
1005.93 1006.09 1006.27 1006.44 1006.61 1006.76 1006.90 1007.02 1007.12 1007.22 1007.32 1007.42 1007.52 1007.62 1007.71 1007.80 1007.89 1007.99 1008.10 1008.23 1008.40 1008.61 1008.88 1009.19 1009.54 1009.91 1010.28 1010.64 1010.97 1011.25 1011.48 1011.66 1011.81 1011.94 1012.08 1012.24 1012.44 1012.70
1006.13 1006.23 1006.35 1006.49 1006.61 1006.74 1006.85 1006.95 1007.04 1007.13 1007.21 1007.29 1007.36 1007.43 1007.49 1007.54 1007.60 1007.66 1007.73 1007.84 1007.98 1008.18 1008.42 1008.71 1009.04 1009.39 1009.75 1010.10 1010.42 1010.70 1010.94 1011.15 1011.33 1011.50 1011.69 1011.89 1012.14 1012.43
1006.24 1006.29 1006.35 1006.42 1006.49 1006.55 1006.62 1006.67 1006.73 1006.78 1006.83 1006.88 1006.92 1006.96 1007.00 1007.03 1007.07 1007.12 1007.19 1007.29 1007.43 1007.62 1007.86 1008.15 1008.47 1008.81 1009.16 1009.51 1009.83 1010.12 1010.38 1010.61 1010.83 1011.05 1011.28 1011.53 1011.82 1012.14
1006.24 1006.23 1006.22 1006.21 1006.21 1006.19 1006.18 1006.17 1006.16 1006.15 1006.15 1006.15 1006.16 1006.18 1006.20 1006.23 1006.28 1006.34 1006.43 1006.56 1006.73 1006.95 1007.22 1007.52 1007.85 1008.20 1008.56 1008.91 1009.24 1009.55 1009.84 1010.11 1010.37 1010.63 1010.91 1011.21 1011.53 1011.89
1006.10 1006.03 1005.95 1005.87 1005.77 1005.67 1005.56 1005.46 1005.36 1005.27 1005.21 1005.16 1005.13 1005.13 1005.14 1005.19 1005.26 1005.37 1005.51 1005.69 1005.92 1006.19 1006.50 1006.85 1007.21 1007.59 1007.96 1008.33 1008.69 1009.03 1009.35 1009.66 1009.97 1010.29 1010.61 1010.96 1011.33 1011.72
1005.83 1005.71 1005.57 1005.41 1005.22 1005.03 1004.82 1004.62 1004.43 1004.26 1004.12 1004.01 1003.94 1003.92 1003.94 1004.01 1004.13 1004.29 1004.50 1004.76 1005.06 1005.40 1005.78 1006.17 1006.58 1007.00 1007.40 1007.80 1008.18 1008.55 1008.91 1009.27 1009.63 1010.00 1010.39 1010.79 1011.21 1011.64
1005.47 1005.32 1005.13 1004.90 1004.65 1004.36 1004.07 1003.78 1003.50 1003.24 1003.03 1002.87 1002.77 1002.73 1002.76 1002.86 1003.02 1003.24 1003.53 1003.86 1004.24 1004.66 1005.09 1005.55 1006.00 1006.45 1006.89 1007.31 1007.72 1008.12 1008.52 1008.92 1009.33 1009.76 1010.20 1010.66 1011.13 1011.61
1005.11 1004.93 1004.71 1004.45 1004.14 1003.80 1003.43 1003.07 1002.71 1002.39 1002.12 1001.91 1001.78 1001.73 1001.76 1001.88 1002.08 1002.36 1002.70 1003.10 1003.54 1004.02 1004.51 1005.00 1005.49 1005.96 1006.42 1006.86 1007.29 1007.71 1008.14 1008.58 1009.03 1009.51 1010.00 1010.52 1011.04 1011.57
Thickness
5658 5662 5665 5668 5672 5675 5678 5680 5680 5679 5684 5694 5702 5710 5714 5716 5719 5720 5721 5721 5722 5721 5721 5721 5721 5721 5721 5720 5720 5720 5720 5721 5721 5721 5721 5721 5721 5721
5648 5652 5656 5659 5662 5666 5669 5673 5676 5677 5677 5686 5694 5701 5706 5709 5712 5714 5715 5717 5717 5717 5718 5718 5718 5719 5719 5718 5718 5718 5719 5719 5720 5720 5720 5721 5721 5721
5637 5642 5646 5649 5652 5656 5660 5664 5668 5671 5672 5678 5686 5693 5697 5700 5703 5705 5708 5709 5711 5712 5713 5714 5715 5716 5716 5716 5716 5716 5717 5717 5718 5718 5719 5719 5720 5720
5625 5630 5635 5639 5642 5647 5651 5655 5659 5664 5667 5670 5676 5682 5687 5692 5695 5696 5699 5701 5704 5706 5707 5709 5710 5711 5712 5713 5713 5714 5715 5715 5716 5716 5717 5718 5718 5719
5613 5618 5623 5628 5632 5636 5641 5645 5650 5656 5660 5663 5667 5673 5678 5682 5684 5688 5690 5693 5696 5698 5700 5703 5705 5706 5707 5708 5709 5710 5712 5713 5713 5714 5715 5716 5716 5717
5601 5606 5611 5617 5622 5626 5630 5635 5640 5645 5651 5655 5658 5663 5668 5672 5675 5677 5679 5683 5687 5691 5693 5695 5698 5700 5701 5703 5704 5706 5707 5709 5710 5711 5712 5713 5714 5715
5587 5593 5600 5606 5612 5616 5621 5624 5630 5634 5639 5644 5648 5653 5657 5661 5665 5669 5671 5673 5677 5682 5684 5687 5690 5692 5694 5696 5698 5700 5702 5705 5707 5708 5709 5709 5710 5711
5574 5579 5586 5593 5600 5606 5611 5615 5621 5624 5629 5634 5638 5643 5650 5655 5659 5661 5663 5665 5668 5674 5677 5678 5681 5684 5687 5689 5692 5694 5696 5699 5702 5703 5704 5705 5706 5707
5561 5567 5574 5581 5587 5592 5598 5604 5610 5616 5622 5626 5629 5636 5642 5648 5652 5654 5657 5660 5664 5668 5669 5669 5672 5674 5677 5680 5684 5687 5689 5692 5695 5697 5699 5700 5701 5702
5551 5556 5561 5567 5573 5579 5584 5590 5595 5603 5610 5616 5622 5628 5634 5639 5644 5649 5652 5653 5656 5660 5663 5662 5663 5665 5668 5671 5674 5678 5681 5684 5687 5689 5692 5694 5695 5695
5543 5548 5552 5556 5563 5569 5573 5577 5583 5589 5597 5605 5612 5618 5624 5630 5635 5638 5641 5643 5645 5650 5655 5657 5656 5656 5657 5660 5664 5668 5672 5675 5678 5681 5683 5685 5687 5688
5536 5541 5546 5549 5553 5557 5562 5566 5571 5578 5586 5593 5598 5605 5612 5619 5625 5631 5635 5636 5638 5642 5648 5650 5649 5649 5649 5651 5654 5658 5662 5665 5669 5671 5674 5676 5678 5678
5531 5534 5538 5543 5546 5549 5553 5557 5563 5568 5574 5580 5586 5593 5600 5607 5615 5622 5628 5632 5633 5637 5642 5644 5643 5643 5645 5644 5645 5649 5653 5656 5658 5661 5663 5666 5668 5669
5527 5530 5533 5537 5540 5542 5545 5550 5554 5558 5562 5568 5575 5582 5589 5597 5605 5612 5619 5625 5630 5633 5637 5640 5639 5639 5639 5638 5639 5640 5643 5647 5649 5651 5654 5656 5657 5658
5524 5527 5530 5532 5534 5536 5540 5543 5546 5548 5552 5557 5564 5571 5580 5588 5596 5602 5608 5614 5619 5623 5628 5632 5636 5635 5636 5636 5634 5635 5636 5638 5640 5642 5644 5646 5648 5648
5520 5522 5525 5527 5528 5531 5533 5535 5539 5542 5547 5551 5557 5563 5570 5577 5585 5592 5597 5603 5607 5612 5618 5623 5627 5629 5628 5629 5630 5630 5631 5633 5633 5634 5635 5636 5638 5639
5517 5518 5519 5520 5522 5524 5527 5529 5533 5536 5540 5545 5550 5556 5562 5569 5577 5584 5590 5595 5599 5604 5607 5611 5615 5619 5623 5624 5622 5623 5624 5625 5627 5626 5626 5627 5629 5630
5516 5516 5517 5519 5520 5522 5525 5527 5530 5533 5537 5540 5545 5551 5557 5563 5569 5576 5582 5587 5592 5596 5599 5602 5604 5606 5608 5611 5617 5618 5617 5618 5619 5618 5619 5619 5620 5621
5515 5516 5518 5519 5520 5522 5524 5526 5529 5533 5535 5538 5542 5546 5552 5557 5563 5569 5575 5580 5584 5588 5592 5596 5599 5601 5603 5604 5606 5611 5612 5611 5611 5610 5611 5612 5613 5613
5517 5518 5520 5521 5522 5523 5525 5527 5529 5531 5534 5537 5540 5544 5548 5553 5558 5564 5570 5575 5579 5581 5585 5589 5594 5598 5601 5602 5600 5601 5605 5606 5606 5604 5602 5601 5601 5603
5520 5521 5522 5523 5524 5525 5527 5528 5529 5531 5533 5536 5540 5543 5546 5550 5555 5560 5565 5570 5574 5578 5581 5585 5589 5592 5593 5593 5592 5593 5595 5599 5602 5601 5598 5595 5593 5593
5523 5524 5525 5526 5527 5528 5529 5529 5530 5531 5533 5535 5538 5541 5545 5548 5553 5558 5562 5566 5571 5575 5578 5580 5581 5583 5585 5588 5589 5587 5587 5588 5590 5592 5594 5595 5593 5590
5527 5528 5528 5528 5529 5530 5531 5531 5532 5532 5534 5535 5538 5540 5544 5546 5550 5554 5558 5563 5567 5569 5572 5573 5575 5578 5580 5582 5582 5581 5581 5582 5582 5582 5582 5585 5588 5590